カタログに戻る

COSMOS 2251 DEB

運用中LEO
NORAD 39583·DEBRIS·🇷🇺 Russia

打ち上げ Jun 16, 1993 から Plesetsk Cosmodrome

Loading…

次のパス (今後24時間)

TLE

経年Source: Space-Track

元期: Sep 9, 2026, 06:20 UTC

1 39583U 93036BUN 26252.26422235  .00004709  00000-0  78929-3 0  9990
2 39583  73.9293  85.0948 0130629 138.7493 222.3636 14.64499162657359

AllMySatでCOSMOS 2251 DEBをリアルタイム追跡

Download on the App Store